LKKU Weather Reports


time (UTC)temp
C
wind
direction
speed
KPH
gust
KPH
rain 1hr
cm
rain 24hr
cm
rain mn
cm
humidity
%
barometer
mb
20260905170614 23 290 16.1 0.0 0.00 0.00 0.00 33 1018.0
20260905163900 23 290 16.1 0.0 0.00 0.00 0.00 33 1018.0
20260905162958 23 290 16.1 0.0 0.00 0.00 0.00 33 1018.0
20260905162313 23 290 16.1 0.0 0.00 0.00 0.00 33 1018.0
20260905161700 23 290 16.1 0.0 0.00 0.00 0.00 33 1018.0
20260905161200 23 290 16.1 0.0 0.00 0.00 0.00 33 1018.0
20260905160859 23 290 16.1 0.0 0.00 0.00 0.00 33 1018.0
20260905160403 23 290 16.1 0.0 0.00 0.00 0.00 33 1018.0
20260905154759 25 270 20.9 0.0 0.00 0.00 0.00 31 1018.0
20260905154621 25 270 20.9 0.0 0.00 0.00 0.00 31 1018.0
20260905154300 25 270 20.9 0.0 0.00 0.00 0.00 31 1018.0
20260905151910 25 270 20.9 0.0 0.00 0.00 0.00 31 1018.0
20260905151200 25 270 20.9 0.0 0.00 0.00 0.00 31 1018.0
20260905150658 25 270 20.9 0.0 0.00 0.00 0.00 31 1018.0
20260905145959 25 290 20.9 0.0 0.00 0.00 0.00 31 1018.0
20260905145659 25 290 20.9 0.0 0.00 0.00 0.00 31 1018.0
20260905145158 25 290 20.9 0.0 0.00 0.00 0.00 31 1018.0
20260905144259 25 290 20.9 0.0 0.00 0.00 0.00 31 1018.0
20260905143800 25 290 20.9 0.0 0.00 0.00 0.00 31 1018.0
20260905142206 25 290 20.9 0.0 0.00 0.00 0.00 31 1018.0
20260905140520 25 290 20.9 0.0 0.00 0.00 0.00 31 1018.0
20260905140204 25 270 16.1 0.0 0.00 0.00 0.00 38 1018.0
20260905135121 25 270 16.1 0.0 0.00 0.00 0.00 38 1018.0
20260905134659 25 270 16.1 0.0 0.00 0.00 0.00 38 1018.0
20260905134259 25 270 16.1 0.0 0.00 0.00 0.00 38 1018.0
20260905133900 25 270 16.1 0.0 0.00 0.00 0.00 38 1018.0
20260905133513 25 270 16.1 0.0 0.00 0.00 0.00 38 1018.0
20260905133159 25 270 16.1 0.0 0.00 0.00 0.00 38 1018.0
20260905132316 25 270 16.1 0.0 0.00 0.00 0.00 38 1018.0
20260905131658 25 270 16.1 0.0 0.00 0.00 0.00 38 1018.0
20260905131159 25 270 16.1 0.0 0.00 0.00 0.00 38 1018.0
20260905130759 25 270 16.1 0.0 0.00 0.00 0.00 38 1018.0
20260905130410 25 270 16.1 0.0 0.00 0.00 0.00 38 1018.0
20260905130307 22 270 19.3 0.0 0.00 0.00 0.00 46 1019.0
20260905125659 22 270 19.3 0.0 0.00 0.00 0.00 46 1019.0
20260905125500 22 270 19.3 0.0 0.00 0.00 0.00 46 1019.0
20260905125300 22 270 19.3 0.0 0.00 0.00 0.00 46 1019.0
20260905124959 22 270 19.3 0.0 0.00 0.00 0.00 46 1019.0
20260905124620 22 270 19.3 0.0 0.00 0.00 0.00 46 1019.0
20260905124120 22 270 19.3 0.0 0.00 0.00 0.00 46 1019.0
20260905123700 22 270 19.3 0.0 0.00 0.00 0.00 46 1019.0
20260905123359 22 270 19.3 0.0 0.00 0.00 0.00 46 1019.0
20260905123200 22 270 19.3 0.0 0.00 0.00 0.00 46 1019.0
20260905122213 22 270 19.3 0.0 0.00 0.00 0.00 46 1019.0
20260905121810 22 270 19.3 0.0 0.00 0.00 0.00 46 1019.0
20260905121159 22 270 19.3 0.0 0.00 0.00 0.00 46 1019.0
20260905120615 22 270 19.3 0.0 0.00 0.00 0.00 46 1019.0
20260905115907 22 250 12.9 0.0 0.00 0.00 0.00 56 1019.0
20260905114120 22 250 12.9 0.0 0.00 0.00 0.00 56 1019.0
20260905112759 22 250 12.9 0.0 0.00 0.00 0.00 56 1019.0
20260905112312 22 250 12.9 0.0 0.00 0.00 0.00 56 1019.0
20260905111913 22 250 12.9 0.0 0.00 0.00 0.00 56 1019.0
20260905110306 22 250 12.9 0.0 0.00 0.00 0.00 56 1019.0
20260905105259 20 250 12.9 0.0 0.00 0.00 0.00 60 1019.0
20260905105121 20 250 12.9 0.0 0.00 0.00 0.00 60 1019.0
20260905104659 20 250 12.9 0.0 0.00 0.00 0.00 60 1019.0
20260905104359 20 250 12.9 0.0 0.00 0.00 0.00 60 1019.0
20260905102859 20 250 12.9 0.0 0.00 0.00 0.00 60 1019.0
20260905102411 20 250 12.9 0.0 0.00 0.00 0.00 60 1019.0
20260905101959 20 250 12.9 0.0 0.00 0.00 0.00 60 1019.0
20260905101459 20 250 12.9 0.0 0.00 0.00 0.00 60 1019.0
20260905100859 20 250 12.9 0.0 0.00 0.00 0.00 60 1019.0
20260905100422 20 250 12.9 0.0 0.00 0.00 0.00 60 1019.0
20260905095259 18 250 14.5 0.0 0.00 0.00 0.00 68 1020.0
20260905094859 18 250 14.5 0.0 0.00 0.00 0.00 68 1020.0
20260905094259 18 250 14.5 0.0 0.00 0.00 0.00 68 1020.0
20260905093800 18 250 14.5 0.0 0.00 0.00 0.00 68 1020.0
20260905092459 18 250 14.5 0.0 0.00 0.00 0.00 68 1020.0
20260905092019 18 250 14.5 0.0 0.00 0.00 0.00 68 1020.0
20260905090900 18 250 14.5 0.0 0.00 0.00 0.00 68 1020.0
20260905090307 18 250 14.5 0.0 0.00 0.00 0.00 68 1020.0
20260905084259 17 260 8.0 0.0 0.00 0.00 0.00 88 1019.0
20260905080241 17 260 8.0 0.0 0.00 0.00 0.00 88 1019.0
20260905073804 17 210 11.3 0.0 0.00 0.00 0.00 88 1018.0
20260905070306 17 210 12.9 0.0 0.00 0.00 0.00 82 1018.0
20260905060306 17 0 3.2 0.0 0.00 0.00 0.00 88 1018.0